This is the latest recevied weather packets stored in our database for station/object LA1HSA-13. If no packets are shown the sender has not sent any weather packets the latest 10 day(s).
| Time | Temp. | Humidity | Pressure | Rain* | Wind** | Luminosity | Snow |
|---|---|---|---|---|---|---|---|
| 1777978203 | 8.89° C | 37% | 1009.6 hPa | 0 mm | - | - | - |
| 1777977604 | 8.89° C | 36% | 1009.5 hPa | 0 mm | - | - | - |
| 1777977003 | 9.44° C | 36% | 1009.4 hPa | 0 mm | - | - | - |
| 1777976403 | 7.78° C | 37% | 1009.6 hPa | 0 mm | - | - | - |
| 1777975804 | 7.22° C | 38% | 1009.9 hPa | 0 mm | - | - | - |
| 1777975203 | 7.22° C | 38% | 1009.7 hPa | 0 mm | - | - | - |
| 1777974603 | 7.78° C | 41% | 1009.9 hPa | 0 mm | - | - | - |
| 1777974003 | 7.22° C | 39% | 1009.7 hPa | 0 mm | - | - | - |
| 1777973403 | 7.22° C | 43% | 1009.8 hPa | 0 mm | - | - | - |
| 1777972803 | 6.67° C | 44% | 1009.7 hPa | 0 mm | - | - | - |
| 1777972203 | 7.78° C | 42% | 1009.7 hPa | 0 mm | - | - | - |
| 1777971604 | 7.78° C | 44% | 1009.7 hPa | 0 mm | - | - | - |
| 1777971003 | 6.11° C | 44% | 1009.8 hPa | 0 mm | - | - | - |
| 1777970404 | 6.67° C | 41% | 1009.7 hPa | 0 mm | - | - | - |
| 1777969803 | 6.67° C | 42% | 1009.6 hPa | 0 mm | - | - | - |
| 1777969203 | 7.22° C | 46% | 1009.9 hPa | 0 mm | - | - | - |
| 1777968603 | 6.11° C | 42% | 1009.8 hPa | 0 mm | - | - | - |
| 1777968003 | 7.22° C | 46% | 1009.5 hPa | 0 mm | - | - | - |
| 1777967403 | 6.11° C | 45% | 1009.5 hPa | 0 mm | - | - | - |
| 1777966803 | 6.11° C | 46% | 1009.4 hPa | 0 mm | - | - | - |
| 1777966203 | 6.11° C | 49% | 1009.6 hPa | 0 mm | - | - | - |
| 1777965603 | 5.56° C | 48% | 1009.7 hPa | 0 mm | - | - | - |
| 1777965003 | 5.56° C | 49% | 1009.3 hPa | 0 mm | - | - | - |
| 1777964403 | 5.56° C | 50% | 1009.4 hPa | 0 mm | - | - | - |
| 1777963803 | 5° C | 49% | 1009.3 hPa | 0 mm | - | - | - |
* Rain latest hour (hover to see other rain measurements)
** Current wind speed in m/s (hover to see current wind gust speed)